Japan Airlines Virtual Airport Information Service

Hong Kong International Airport

ICAO: VHHH Country: Hong Kong
Latitude: 22.3089 Longitude: 113.915
Latest Arrival : CPA495 (RCTP-VHHH) Latest Departure : CPA494 (VHHH-RCTP)


WX CaptureLIVE
Data provided by noaa.gov | Fetched at 13:52:18

METAR : VHHH 231330Z 25005KT CAVOK 28/20 Q1008 NOSIG

TAF : VHHH 231100Z 2312/2418 VRB05KT 8000 FEW030 TX30/2406Z TN24/2322Z TEMPO 2312/2315 15010KT BECMG 2322/2324 12010KT TEMPO 2404/2408 27010KT


Runway Data for VHHH
Data provided by openaviationdata.com

Runway ID Mag Var Hdg Length Elevation Surface ILS Freq ILS Id ILS Slope
07L -2 72° 12431 ft 28 ft Asphalt 111.1 IZSL 3
07R -2 72° 12431 ft 28 ft Asphalt 109.3 ISR 3
25L -2 252° 12431 ft 28 ft Asphalt 108.9 IFL 3
25R -2 252° 12431 ft 28 ft Asphalt 110.9 ITFR 3

Hong Kong International Airport, Hong Kong
Use only for reference purposes



Not for navigational purposes.